Flag for Germany Weather past 2 weeks in Bocholt, North Rhine-Westphalia, Germany

Now
68 °F

Partly sunny.


Feels Like: 68 °F
Forecast: 54 / 71 °F
Wind: 6 mph from North

Location: Niederrhein

Current Time: Sep 2, 2014 at 3:15:21 PM

Latest Report: Sep 2, 2014 at 1:50 PM


Visibility: N/A

Pressure: 30.21 "Hg

Humidity: 60%

Dew point: 54 °F

Location of BocholtLocation

Historic Weather in Bocholt — Graph

°F

Bocholt temperature yesterday

Maximum temperature yesterday: 68 °F (at 3:50 PM)
Minimum temperature yesterday: 50 °F (at 4:50 AM)
Average temperature yesterday: 60 °F

Past Weeks' High & Low Weather Summary

 TemperatureHumidityPressure
High72 °F (Aug 27, 6:20 PM)100% (Aug 19, 5:50 AM)30.21 "Hg (Aug 19, 5:50 AM)
Low45 °F (Aug 21, 6:50 AM)43% (Aug 27, 3:20 PM)29.62 "Hg (Aug 26, 4:50 AM)
Average59 °F81%29.96 "Hg
* Reported Aug 18 1:20 PM — Sep 2 1:50 PM, Bocholt, Weather by CustomWeather, © 2014

Note: Actual official high and low records may vary slightly from our data, if they occured in-between our weather recording intervals... More about our weather records

Advertising

Bocholt weather history for previous 24 hours

 ConditionsComfort  
Time TempWeatherWind HumidityBarometerVisibility
1:50 PM
Sep 2
68 °FPartly sunny.6 mph60%30.21 "HgN/A
1:20 PM68 °FPassing clouds.5 mph56%30.21 "HgN/A
12:50 PM68 °FSunny.6 mph53%30.21 "Hg10 mi
12:20 PM68 °FSunny.5 mph56%30.21 "Hg10 mi
11:50 AM68 °FPassing clouds.5 mph60%30.18 "HgN/A
11:20 AM66 °FPassing clouds.5 mph64%30.21 "HgN/A
10:50 AM64 °FSunny.5 mph73%30.21 "Hg10 mi
10:20 AM64 °FSunny.3 mph73%30.21 "Hg10 mi
9:50 AM63 °FSunny.2 mph77%30.18 "Hg10 mi
9:20 AM61 °FSunny.3 mph83%30.18 "Hg10 mi
8:50 AM59 °FSunny.2 mph88%30.18 "Hg10 mi
8:20 AM57 °FFog.2 mph94%30.18 "Hg3 mi
7:50 AM55 °FFog.2 mph100%30.18 "Hg2 mi
6:50 AM54 °FFog.1 mph100%30.15 "Hg3 mi
6:20 AM55 °FFog.No wind100%30.15 "Hg3 mi
5:50 AM55 °FClear.No wind100%30.15 "Hg10 mi
5:20 AM55 °FPassing clouds.No wind100%30.15 "Hg6 mi
4:50 AM54 °FPassing clouds.No wind100%30.15 "Hg5 mi
11:50 PM
Sep 1
59 °FClear.2 mph94%30.15 "Hg10 mi
11:20 PM61 °FClear.1 mph83%30.15 "Hg10 mi
10:50 PM61 °FClear.No wind83%30.15 "Hg10 mi
10:20 PM61 °FSunny.No wind83%30.15 "Hg10 mi
9:50 PM61 °FSunny.No wind83%30.15 "Hg10 mi
9:20 PM61 °FSunny.No wind88%30.15 "Hg10 mi
8:50 PM63 °FSunny.2 mph83%30.12 "Hg10 mi
8:20 PM64 °FSunny.No wind73%30.12 "Hg10 mi
7:50 PM66 °FSunny.2 mph68%30.12 "Hg10 mi
7:20 PM66 °FSunny.3 mph64%30.12 "Hg10 mi
6:50 PM68 °FPassing clouds.5 mph60%30.12 "HgN/A
6:20 PM66 °FSunny.2 mph64%30.12 "Hg10 mi
5:50 PM68 °FSunny.3 mph60%30.12 "Hg10 mi
5:20 PM68 °FScattered clouds.6 mph56%30.12 "HgN/A
4:50 PM68 °FPassing clouds.7 mph60%30.12 "HgN/A
4:20 PM68 °FSunny.3 mph56%30.12 "Hg10 mi
3:50 PM68 °FPassing clouds.5 mph60%30.12 "HgN/A
3:20 PM66 °FPassing clouds.7 mph64%30.12 "HgN/A
Weather by CustomWeather, © 2014

See weather overviewHow to use our weather pages